Location: Skymont Scout Reservation
(35.4344°N, 85.8742°W)
Time: 18:44:38
(UTC-05:00)

ISS - All Passes

Search period start: 31 May 2016 00:00
Search period end: 10 June 2016 00:00
Orbit: 402 x 404 km, 51.6° (Epoch: 31 May)

Date Brightness Start Highest point End Pass type
(mag) Time Alt. Az. Time Alt. Az. Time Alt. Az.
31 May - 02:39:19 10° NNW 02:42:22 35° NE 02:45:24 10° ESE visible
31 May - 04:16:21 10° W 04:18:36 17° SW 04:20:50 10° S night (unlit)
31 May - 19:16:22 10° SW 19:19:35 59° SE 19:22:48 10° NE daylight
31 May - 20:54:11 10° WNW 20:56:16 16° NNW 20:58:22 10° NNE visible
01 Jun - 01:46:56 10° NNW 01:49:27 20° NNE 01:51:58 10° E visible
01 Jun - 03:22:56 10° WNW 03:25:59 37° SW 03:29:00 10° SSE night (unlit)
01 Jun - 18:24:08 10° S 18:26:55 26° SE 18:29:42 10° ENE daylight
01 Jun - 20:00:31 10° W 20:03:18 26° NW 20:06:07 10° NNE daylight
02 Jun - 00:54:50 10° N 00:56:27 13° NNE 00:58:03 10° NE visible
02 Jun - 02:30:01 10° NW 02:33:17 86° SW 02:36:32 10° SE night (unlit)
02 Jun - 17:32:51 10° SSE 17:34:19 13° SE 17:35:48 10° E daylight
02 Jun - 19:07:15 10° WSW 19:10:25 48° NW 19:13:36 10° NE daylight
03 Jun - 01:37:21 10° NW 01:40:29 43° NE 01:43:36 10° ESE visible
03 Jun - 03:14:50 10° W 03:16:37 14° SW 03:18:24 10° SSW night (unlit)
03 Jun - 18:14:23 10° SW 18:17:38 76° SE 18:20:54 10° NE daylight
03 Jun - 19:52:37 10° WNW 19:54:25 14° NNW 19:56:13 10° N daylight
04 Jun - 00:44:52 10° NNW 00:47:35 23° NNE 00:50:17 10° E visible
04 Jun - 02:21:07 10° WNW 02:24:01 29° SW 02:26:52 10° SSE night (unlit)
04 Jun - 17:21:58 10° SSW 17:24:56 32° SE 17:27:54 10° ENE daylight
04 Jun - 18:58:47 10° W 19:01:24 22° NNW 19:04:02 10° NNE daylight
04 Jun - 23:52:38 10° N 23:54:35 15° NNE 23:56:31 10° ENE visible
05 Jun - 01:28:05 10° NW 01:31:19 67° SW 01:34:32 10° SE night (unlit)
05 Jun - 16:30:16 10° SSE 16:32:18 16° SE 16:34:21 10° E daylight
05 Jun - 18:05:23 10° WSW 18:08:28 39° NW 18:11:35 10° NE daylight
06 Jun - 00:35:19 10° NW 00:38:32 54° NE 00:41:43 10° ESE visible
06 Jun - 02:13:32 10° WSW 02:14:35 11° SW 02:15:38 10° SW night (unlit)
06 Jun - 17:12:23 10° SW 17:15:39 85° NW 17:18:55 10° NE daylight
06 Jun - 18:51:05 10° NW 18:52:31 12° NNW 18:53:57 10° N daylight
06 Jun - 23:42:46 10° NNW 23:45:38 28° NE 23:48:29 10° E visible
07 Jun - 01:19:19 10° WNW 01:21:59 23° SW 01:24:38 10° S night (unlit)
07 Jun - 16:19:48 10° SSW 16:22:53 41° SE 16:26:00 10° ENE daylight
07 Jun - 17:57:02 10° W 17:59:28 19° NNW 18:01:54 10° NNE daylight
07 Jun - 22:50:26 10° NNW 22:52:38 17° NNE 22:54:51 10° ENE visible
08 Jun - 00:26:06 10° WNW 00:29:17 52° SW 00:32:27 10° SSE visible
08 Jun - 15:27:49 10° S 15:30:14 19° SE 15:32:39 10° E daylight
08 Jun - 17:03:30 10° WSW 17:06:29 32° NW 17:09:30 10° NNE daylight
08 Jun - 21:58:36 10° N 21:59:33 11° NNE 22:00:31 10° NE visible
08 Jun - 23:33:15 10° NW 23:36:31 68° NE 23:39:45 10° SE visible
09 Jun - 16:10:22 10° SW 16:13:37 67° NW 16:16:52 10° NE daylight
09 Jun - 17:49:38 10° NW 17:50:34 11° NNW 17:51:31 10° N daylight
09 Jun - 22:40:38 10° NNW 22:43:38 33° NE 22:46:37 10° ESE visible
